Miscellaneous Local Product
Issued by NWS North Platte, NE

Home | Current Version | Previous Version | Text Only | Print | Product List | Glossary On
Versions: 1 2 3 4 5 6 7 8 9 10 11 12 13 14 15 16 17 18 19 20 21 22 23 24 25 26 27 28 29 30 31 32 33 34 35 36 37 38 39 40 41 42 43 44 45 46 47 48 49 50
000
AXUS43 KLBF 042010
MISLBF


WESTERN AND NORTH CENTRAL NEBRASKA HOURLY WEATHER ROUNDUP
NATIONAL WEATHER SERVICE NORTH PLATTE NE
300 PM CDT WED MAY 04 2016

NOTE: "FAIR" INDICATES FEW OR NO CLOUDS BELOW 12,000 FEET WITH NO
SIGNIFICANT WEATHER AND/OR OBSTRUCTIONS TO VISIBILITY.

NOTE: STATIONS NOT REPORTING VARIABLES SUCH AS SKY/WEATHER OR
PRESSURE ARE PROVIDED BY RAWS AND APRS NETWORKS AND ARE NOT UNDER
NATIONAL WEATHER SERVICE QUALITY CONTROL.

...OBSERVATIONS IN AND NEAR THE EASTERN PANHANDLE OF NEBRASKA...

CITY           SKY/WX    TMP DP  RH WIND       PRES   REMARKS
PINE RIDGE     SUNNY     74  36  25 CALM      30.12F
CHADRON        SUNNY     75  40  28 E5        30.11F
ALLIANCE       SUNNY     72  39  30 VRB5      30.14F
SIDNEY         SUNNY     72  38  29 E6        30.17F
CRESCENT LAKE    N/A     75  37  25 N5G13       N/A
BIG SPRINGS      N/A     73  40  31 NE6         N/A
$$

...OBSERVATIONS IN NORTHERN NEBRASKA AND FAR SOUTHERN SOUTH DAKOTA...

CITY           SKY/WX    TMP DP  RH WIND       PRES   REMARKS
WINNER         FAIR      71  35  26 N5        30.10F
VALENTINE      SUNNY     73  34  23 N8G16     30.11F
THEDFORD       SUNNY     73  38  27 NE12G17   30.13S
AINSWORTH      SUNNY     69  34  27 N3        30.12S
O`NEILL        SUNNY     67  29  24 N15       30.10F
ORD            SUNNY     69  33  26 N14G22    30.09F
BROKEN BOW     SUNNY     71  44  37 N12G21    30.11S
VALENTINE NWR    N/A     71  35  27 NE8G15      N/A
BUTTE            N/A     65  36  33 NW7G20      N/A
HALSEY           N/A     75  33  22 N6G14       N/A
EWING            N/A     66  35  32 N7G14       N/A
$$

...OBSERVATIONS IN SOUTHWEST NEBRASKA AND FAR NORTHEAST COLORADO...

CITY           SKY/WX    TMP DP  RH WIND       PRES   REMARKS
HOLYOKE        FAIR      77  41  27 N6        30.16F
IMPERIAL       SUNNY     75  37  25 NE8       30.13F
OGALLALA       MOSUNNY   74  38  26 NE7       30.13F
NORTH PLATTE   SUNNY     75  38  26 NE8       30.11F
MCCOOK         SUNNY     75  40  28 CALM      30.10F
LEXINGTON      SUNNY     71  38  30 N9        30.11F
PAXTON           N/A     74  43  32 N9          N/A
STAPLETON        N/A     73  40  29 CALM        N/A
GOTHENBURG       N/A     73  33  23 N7          N/A
CALLAWAY         N/A     70  41  34 N9          N/A
$$

...OBSERVATIONS IN CENTRAL LINCOLN COUNTY AREA...

CITY           SKY/WX    TMP DP  RH WIND       PRES   REMARKS
N.P. AIRPORT   SUNNY     75  38  26 NE8       30.11F
N.P. DOWNTOWN    N/A     74  38  26 N9          N/A
N.P. SOUTHEAST   N/A     76  37  24 N6G14       N/A
N.P. HILLCREST   N/A     74  36  24 N8G18       N/A
$$

...SOME OBSERVATIONS FROM AROUND THE REGION...

CITY           SKY/WX    TMP DP  RH WIND       PRES   REMARKS
DENVER         MOSUNNY   72  28  19 VRB3      30.20F
LARAMIE        SUNNY     64  27  24 NW9       30.26F
CHEYENNE       SUNNY     69  27  20 E3        30.22F
SCOTTSBLUFF    SUNNY     74  38  27 CALM      30.14F
RAPID CITY     SUNNY     76  43  30 S10       30.09F
BISMARCK       SUNNY     77  41  27 SE7       30.02F
PIERRE         SUNNY     71  35  26 CALM      30.07F
SIOUX FALLS    MOSUNNY   66  38  35 NW8G18    30.03F
OMAHA          MOSUNNY   68  39  34 N18G26    30.02F
GRAND ISLAND   SUNNY     69  31  24 N14       30.09F
KANSAS CITY    SUNNY     68  39  34 NW14G23   29.99S
WICHITA        SUNNY     75  34  22 N16G26    30.04F
OKLAHOMA CITY  SUNNY     81  46  29 NW23G31   30.01F
DALLAS         SUNNY     81  48  31 NW16G24   30.01F
AMARILLO       SUNNY     77  35  21 N7        30.18F
DODGE CITY     SUNNY     74  44  34 N14G21    30.12S
HAYS           SUNNY     72  41  33 N13G18    30.11S
GOODLAND       SUNNY     75  40  28 N12       30.15F
$$




USA.gov is the U.S. government's official web portal to all federal, state and local government web resources and services.